User: anonymous   Login
Location: Columbia
(38.9520°N, 92.3340°W)
Time: 08:54:11
(UTC-05:00)
Language:

Cosmos 1633 - Orbit

View from above orbital plane
View from above orbital plane
View from above satellite
View from above satellite

Ground track
Ground track

The orbit data is extracted from the following two-line orbital elements,

1 15592U 85020A   18171.81839586  .00001080  00000-0  36361-4 0  9995
2 15592  82.5379 309.6390 0012088 317.8017  42.2292 15.29582514820625
Epoch (UTC): 20 June 2018 19:38:29
Eccentricity: 0.0012088
inclination: 82.5379°
perigee height: 469 km
apogee height: 485 km
right ascension of ascending node: 309.6390°
argument of perigee: 317.8017°
revolutions per day: 15.29582514
mean anomaly at epoch: 42.2292°
orbit number at epoch: 82062

The dashed part of the orbit path shows where the satellite is in the earth's shadow,  

DLR